SKW4911 KPHX-KASE

Flight info

Callsign SKW4911
Flight time 1h 22m
Altitude 35000
Route MRBIL1 YOOPR SLIPY LOYYD1
Aircraft E75L/M-SDE3GILORVW/S

Departure

Time 2026-03-25 06:14
Airport Phoenix Sky Harbor International Airport (KPHX)

Arrival

Time 2026-03-25 07:36
Airport Aspen-Pitkin County Airport (Sardy Field) (KASE)
Time Latitude Longitude Altitude Speed Heading
2026-03-25 05:51 33.43752 -111.99735 1122 ft 0 kts 85°
2026-03-25 06:05 33.43752 -111.99738 1122 ft 1 kts 85°
2026-03-25 06:05 33.43749 -111.99759 1115 ft 3 kts 70°
2026-03-25 06:06 33.43738 -111.99777 1120 ft 3 kts 27°
2026-03-25 06:06 33.43726 -111.99780 1116 ft 1 kts 359°
2026-03-25 06:06 33.43722 -111.99780 1117 ft 0 kts 359°
2026-03-25 06:08 33.43726 -111.99781 1116 ft 3 kts 349°
2026-03-25 06:09 33.43764 -111.99782 1117 ft 9 kts
2026-03-25 06:09 33.43853 -111.99780 1120 ft 15 kts
2026-03-25 06:09 33.43904 -111.99697 1123 ft 17 kts 94°
2026-03-25 06:09 33.43905 -111.99512 1123 ft 27 kts 89°
2026-03-25 06:10 33.43904 -111.99305 1123 ft 21 kts 91°
2026-03-25 06:10 33.43985 -111.99232 1122 ft 5 kts
2026-03-25 06:10 33.43987 -111.99232 1127 ft 0 kts
2026-03-25 06:11 33.43988 -111.99232 1127 ft 0 kts
2026-03-25 06:11 33.43994 -111.99231 1128 ft 1 kts
2026-03-25 06:12 33.44016 -111.99228 1131 ft 6 kts
2026-03-25 06:12 33.44073 -111.99240 1136 ft 12 kts 318°
2026-03-25 06:12 33.44083 -111.99335 1133 ft 1 kts 272°
2026-03-25 06:13 33.44081 -111.99439 1133 ft 45 kts 269°
2026-03-25 06:13 33.44082 -112.00158 1129 ft 126 kts 268°
2026-03-25 06:13 33.44079 -112.01427 1526 ft 161 kts 269°
2026-03-25 06:14 33.44097 -112.02733 2580 ft 152 kts 273°
2026-03-25 06:14 33.44222 -112.04039 3265 ft 168 kts 279°
2026-03-25 06:14 33.44435 -112.05459 3964 ft 176 kts 277°
2026-03-25 06:14 33.44454 -112.06473 4233 ft 197 kts 265°
2026-03-25 06:15 33.44283 -112.08224 3648 ft 225 kts 263°
2026-03-25 06:15 33.44127 -112.10094 3379 ft 209 kts 265°
2026-03-25 06:15 33.44028 -112.11802 4005 ft 210 kts 267°
2026-03-25 06:15 33.44109 -112.13590 4735 ft 217 kts 279°
2026-03-25 06:16 33.44370 -112.15394 5488 ft 222 kts 283°
2026-03-25 06:16 33.45184 -112.16952 6185 ft 228 kts 318°
2026-03-25 06:16 33.46453 -112.18187 6693 ft 246 kts 320°
2026-03-25 06:16 33.47796 -112.19545 7329 ft 254 kts 319°
2026-03-25 06:17 33.49197 -112.20956 8030 ft 272 kts 319°
2026-03-25 06:17 33.50693 -112.22377 8787 ft 287 kts 328°
2026-03-25 06:17 33.52713 -112.22892 9236 ft 306 kts 10°
2026-03-25 06:17 33.54688 -112.22112 10347 ft 303 kts 24°
2026-03-25 06:18 33.56380 -112.20591 11098 ft 306 kts 45°
2026-03-25 06:18 33.57804 -112.18687 11939 ft 308 kts 50°
2026-03-25 06:18 33.59155 -112.16677 12748 ft 311 kts 52°
2026-03-25 06:18 33.60619 -112.14745 13555 ft 315 kts 43°
2026-03-25 06:19 33.62301 -112.13039 14335 ft 319 kts 39°
2026-03-25 06:19 33.64035 -112.11344 15102 ft 324 kts 40°
2026-03-25 06:19 33.65770 -112.09586 15886 ft 329 kts 41°
2026-03-25 06:19 33.67501 -112.07780 16680 ft 332 kts 41°
2026-03-25 06:20 33.69247 -112.05935 17423 ft 336 kts 42°
2026-03-25 06:20 33.71013 -112.04065 18124 ft 341 kts 42°
2026-03-25 06:20 33.72799 -112.02171 18814 ft 343 kts 42°
2026-03-25 06:20 33.74599 -112.00257 19426 ft 347 kts 44°
2026-03-25 06:21 33.76191 -111.98074 20009 ft 350 kts 52°
2026-03-25 06:21 33.77672 -111.95736 20662 ft 353 kts 54°
2026-03-25 06:21 33.79146 -111.93361 21299 ft 356 kts 54°
2026-03-25 06:21 33.80640 -111.90968 21950 ft 360 kts 53°
2026-03-25 06:22 33.82154 -111.88559 22574 ft 363 kts 53°
2026-03-25 06:22 33.83688 -111.86124 23192 ft 367 kts 53°
2026-03-25 06:22 33.85242 -111.83664 23768 ft 370 kts 53°
2026-03-25 06:22 33.86809 -111.81186 24287 ft 374 kts 54°
2026-03-25 06:23 33.88386 -111.78679 24789 ft 377 kts 53°
2026-03-25 06:23 33.89976 -111.76152 25270 ft 381 kts 54°
2026-03-25 06:23 33.91562 -111.73630 25765 ft 384 kts 54°
2026-03-25 06:23 33.93181 -111.71052 26243 ft 388 kts 54°
2026-03-25 06:24 33.94816 -111.68452 26718 ft 391 kts 54°
2026-03-25 06:24 33.96464 -111.65827 27165 ft 395 kts 54°
2026-03-25 06:24 33.98126 -111.63178 27639 ft 398 kts 54°
2026-03-25 06:24 33.99812 -111.60528 28095 ft 401 kts 50°
2026-03-25 06:25 34.01910 -111.58279 28518 ft 406 kts 36°
2026-03-25 06:25 34.04310 -111.56447 28926 ft 411 kts 31°
2026-03-25 06:25 34.06790 -111.54708 29452 ft 414 kts 31°
2026-03-25 06:25 34.09267 -111.52916 29908 ft 416 kts 32°
2026-03-25 06:26 34.11737 -111.51063 30318 ft 419 kts 33°
2026-03-25 06:26 34.14209 -111.49171 30703 ft 422 kts 33°
2026-03-25 06:26 34.16693 -111.47261 31074 ft 424 kts 33°
2026-03-25 06:27 34.21688 -111.43413 31831 ft 428 kts 33°
2026-03-25 06:27 34.24212 -111.41470 32179 ft 430 kts 33°
2026-03-25 06:27 34.26737 -111.39524 32533 ft 432 kts 34°
2026-03-25 06:27 34.29282 -111.37563 32859 ft 434 kts 34°
2026-03-25 06:28 34.31835 -111.35592 33204 ft 436 kts 34°
2026-03-25 06:28 34.34400 -111.33609 33486 ft 439 kts 33°
2026-03-25 06:28 34.36987 -111.31611 33773 ft 442 kts 33°
2026-03-25 06:28 34.39581 -111.29605 34047 ft 444 kts 34°
2026-03-25 06:29 34.42186 -111.27588 34306 ft 445 kts 34°
2026-03-25 06:29 34.44800 -111.25564 34518 ft 448 kts 34°
2026-03-25 06:29 34.47432 -111.23524 34660 ft 450 kts 34°
2026-03-25 06:29 34.50069 -111.21477 34866 ft 452 kts 34°
2026-03-25 06:30 34.52728 -111.19411 35030 ft 455 kts 34°
2026-03-25 06:30 34.58127 -111.15214 35125 ft 468 kts 34°
2026-03-25 06:31 34.63692 -111.10901 35118 ft 478 kts 32°
2026-03-25 06:31 34.69590 -111.07076 35085 ft 481 kts 27°
2026-03-25 06:32 34.75485 -111.03333 35086 ft 481 kts 28°
2026-03-25 06:32 34.81381 -110.99474 35094 ft 481 kts 28°
2026-03-25 06:33 34.87262 -110.95605 35130 ft 481 kts 28°
2026-03-25 06:33 34.93157 -110.91702 35160 ft 484 kts 28°
2026-03-25 06:34 34.99085 -110.87805 35190 ft 484 kts 28°
2026-03-25 06:34 35.05009 -110.83906 35205 ft 484 kts 28°
2026-03-25 06:35 35.13872 -110.78043 35189 ft 480 kts 28°
2026-03-25 06:35 35.16809 -110.76095 35050 ft 481 kts 28°
2026-03-25 06:35 35.19758 -110.74140 35049 ft 483 kts 28°
2026-03-25 06:36 35.25660 -110.70220 35034 ft 483 kts 28°
2026-03-25 06:36 35.31566 -110.66291 35034 ft 483 kts 28°
2026-03-25 06:37 35.37472 -110.62355 35031 ft 483 kts 28°
2026-03-25 06:37 35.43378 -110.58412 35030 ft 483 kts 28°
2026-03-25 06:38 35.49291 -110.54461 35025 ft 484 kts 28°
2026-03-25 06:38 35.55203 -110.50496 35016 ft 484 kts 28°
2026-03-25 06:39 35.61114 -110.46531 35018 ft 484 kts 28°
2026-03-25 06:39 35.67050 -110.42722 35007 ft 481 kts 22°
2026-03-25 06:40 35.73344 -110.39904 35002 ft 482 kts 17°
2026-03-25 06:40 35.79688 -110.37219 34996 ft 482 kts 18°
2026-03-25 06:41 35.86006 -110.34441 34990 ft 482 kts 18°
2026-03-25 06:41 35.92321 -110.31648 35000 ft 482 kts 18°
2026-03-25 06:42 35.98640 -110.28851 34992 ft 483 kts 18°
2026-03-25 06:42 36.04923 -110.26065 34987 ft 483 kts 18°
2026-03-25 06:43 36.11283 -110.23239 34986 ft 483 kts 18°
2026-03-25 06:43 36.17566 -110.20443 34988 ft 483 kts 18°
2026-03-25 06:44 36.23893 -110.17625 34991 ft 483 kts 18°
2026-03-25 06:44 36.30219 -110.14799 34992 ft 483 kts 18°
2026-03-25 06:45 36.36535 -110.11975 34991 ft 481 kts 18°
2026-03-25 06:45 36.42826 -110.09157 34991 ft 481 kts 18°
2026-03-25 06:46 36.49130 -110.06328 34994 ft 482 kts 17°
2026-03-25 06:46 36.55444 -110.03489 34994 ft 482 kts 18°
2026-03-25 06:47 36.61756 -110.00646 34994 ft 482 kts 18°
2026-03-25 06:47 36.68066 -109.97798 34998 ft 482 kts 18°
2026-03-25 06:48 36.74375 -109.94946 34997 ft 482 kts 18°
2026-03-25 06:48 36.80679 -109.92093 35014 ft 482 kts 18°
2026-03-25 06:49 36.86989 -109.89231 35015 ft 482 kts 18°
2026-03-25 06:49 36.93298 -109.86364 35013 ft 482 kts 18°
2026-03-25 06:50 36.99610 -109.83491 35022 ft 483 kts 17°
2026-03-25 06:50 37.05885 -109.80630 35023 ft 483 kts 17°
2026-03-25 06:51 37.12185 -109.77752 35041 ft 480 kts 17°
2026-03-25 06:51 37.18469 -109.74877 35043 ft 481 kts 17°
2026-03-25 06:52 37.24751 -109.71997 35041 ft 480 kts 17°
2026-03-25 06:52 37.31031 -109.69112 35036 ft 480 kts 17°
2026-03-25 06:53 37.37304 -109.66227 35117 ft 481 kts 17°
2026-03-25 06:53 37.43586 -109.63331 35146 ft 481 kts 17°
2026-03-25 06:54 37.49870 -109.60431 35196 ft 481 kts 17°
2026-03-25 06:54 37.53013 -109.58977 34730 ft 479 kts 17°
2026-03-25 06:54 37.56142 -109.57530 33633 ft 480 kts 17°
2026-03-25 06:55 37.59290 -109.56072 32405 ft 483 kts 17°
2026-03-25 06:55 37.62451 -109.54607 31156 ft 487 kts 17°
2026-03-25 06:55 37.65643 -109.53126 29821 ft 490 kts 17°
2026-03-25 06:55 37.68822 -109.51649 28908 ft 482 kts 17°
2026-03-25 06:56 37.71896 -109.50215 28031 ft 473 kts 17°
2026-03-25 06:56 37.74997 -109.48772 27113 ft 465 kts 17°
2026-03-25 06:56 37.78011 -109.47368 26223 ft 458 kts 17°
2026-03-25 06:56 37.80934 -109.45977 25478 ft 451 kts 21°
2026-03-25 06:57 37.83662 -109.44056 25414 ft 443 kts 30°
2026-03-25 06:57 37.86225 -109.41898 25381 ft 454 kts 31°
2026-03-25 06:57 37.88879 -109.39712 25341 ft 456 kts 30°
2026-03-25 06:57 37.91576 -109.37587 25307 ft 457 kts 29°
2026-03-25 06:58 37.94294 -109.35496 25270 ft 457 kts 28°
2026-03-25 06:58 37.97017 -109.33414 25254 ft 458 kts 28°
2026-03-25 06:58 37.99748 -109.31326 25230 ft 458 kts 28°
2026-03-25 06:58 38.02476 -109.29237 25203 ft 458 kts 28°
2026-03-25 06:59 38.05205 -109.27144 25080 ft 458 kts 28°
2026-03-25 06:59 38.07925 -109.25059 25031 ft 456 kts 28°
2026-03-25 06:59 38.10638 -109.22969 25033 ft 456 kts 29°
2026-03-25 06:59 38.13279 -109.20832 25006 ft 438 kts 31°
2026-03-25 07:00 38.15734 -109.18733 24982 ft 415 kts 31°
2026-03-25 07:00 38.18062 -109.16729 24981 ft 392 kts 31°
2026-03-25 07:00 38.20267 -109.14844 24991 ft 376 kts 31°
2026-03-25 07:00 38.22456 -109.12988 25039 ft 382 kts 30°
2026-03-25 07:01 38.24682 -109.11109 25078 ft 387 kts 30°
2026-03-25 07:01 38.26930 -109.09207 25077 ft 388 kts 30°
2026-03-25 07:01 38.29180 -109.07298 25062 ft 389 kts 30°
2026-03-25 07:01 38.31428 -109.05386 25054 ft 389 kts 30°
2026-03-25 07:02 38.33676 -109.03475 25051 ft 388 kts 30°
2026-03-25 07:02 38.35923 -109.01562 25054 ft 389 kts 30°
2026-03-25 07:02 38.38171 -108.99651 25038 ft 388 kts 30°
2026-03-25 07:02 38.40416 -108.97738 25048 ft 388 kts 30°
2026-03-25 07:03 38.41901 -108.96472 25058 ft 389 kts 30°
2026-03-25 07:03 38.44149 -108.94555 25059 ft 389 kts 30°
2026-03-25 07:03 38.46397 -108.92635 25052 ft 389 kts 30°
2026-03-25 07:03 38.48646 -108.90712 25048 ft 390 kts 30°
2026-03-25 07:04 38.50903 -108.88785 24963 ft 392 kts 30°
2026-03-25 07:04 38.53169 -108.86846 24736 ft 391 kts 30°
2026-03-25 07:04 38.55417 -108.84919 24507 ft 388 kts 30°
2026-03-25 07:04 38.57648 -108.83007 24275 ft 385 kts 30°
2026-03-25 07:05 38.59868 -108.81103 24045 ft 384 kts 30°
2026-03-25 07:05 38.62067 -108.79213 24024 ft 379 kts 30°
2026-03-25 07:05 38.64265 -108.77326 24053 ft 382 kts 29°
2026-03-25 07:05 38.66473 -108.75432 24042 ft 383 kts 30°
2026-03-25 07:06 38.68693 -108.73521 24031 ft 384 kts 29°
2026-03-25 07:06 38.70903 -108.71621 24039 ft 383 kts 30°
2026-03-25 07:06 38.73118 -108.69713 24024 ft 384 kts 30°
2026-03-25 07:06 38.75338 -108.67799 24010 ft 386 kts 30°
2026-03-25 07:07 38.77564 -108.65879 24019 ft 385 kts 30°
2026-03-25 07:07 38.79750 -108.63887 24016 ft 389 kts 38°
2026-03-25 07:07 38.81423 -108.61139 24014 ft 396 kts 61°
2026-03-25 07:07 38.82399 -108.57828 24055 ft 398 kts 72°
2026-03-25 07:08 38.83182 -108.54417 24067 ft 399 kts 72°
2026-03-25 07:08 38.84034 -108.51034 24064 ft 398 kts 69°
2026-03-25 07:08 38.84967 -108.47689 24068 ft 398 kts 68°
2026-03-25 07:08 38.85940 -108.44363 24061 ft 398 kts 68°
2026-03-25 07:09 38.86923 -108.41044 24067 ft 398 kts 67°
2026-03-25 07:09 38.87904 -108.37720 24094 ft 400 kts 67°
2026-03-25 07:09 38.88888 -108.34383 24111 ft 400 kts 67°
2026-03-25 07:09 38.89870 -108.31038 24125 ft 399 kts 67°
2026-03-25 07:10 38.90846 -108.27707 24137 ft 400 kts 67°
2026-03-25 07:10 38.91823 -108.24368 24147 ft 399 kts 67°
2026-03-25 07:10 38.92800 -108.21029 24158 ft 399 kts 67°
2026-03-25 07:10 38.93774 -108.17689 24159 ft 399 kts 68°
2026-03-25 07:11 38.94750 -108.14349 24166 ft 399 kts 67°
2026-03-25 07:11 38.95727 -108.11009 24164 ft 399 kts 67°
2026-03-25 07:11 38.96702 -108.07669 24152 ft 399 kts 68°
2026-03-25 07:11 38.97665 -108.04330 24133 ft 398 kts 68°
2026-03-25 07:12 38.98630 -108.00985 24150 ft 400 kts 68°
2026-03-25 07:12 38.99598 -107.97635 24144 ft 400 kts 68°
2026-03-25 07:12 39.00553 -107.94327 24133 ft 400 kts 68°
2026-03-25 07:12 39.01521 -107.90974 24123 ft 399 kts 68°
2026-03-25 07:13 39.02485 -107.87625 24118 ft 399 kts 68°
2026-03-25 07:13 39.03449 -107.84276 24106 ft 399 kts 68°
2026-03-25 07:13 39.04412 -107.80925 24075 ft 399 kts 68°
2026-03-25 07:13 39.05373 -107.77573 24087 ft 399 kts 68°
2026-03-25 07:14 39.06335 -107.74220 24101 ft 399 kts 68°
2026-03-25 07:14 39.07297 -107.70863 24083 ft 400 kts 68°
2026-03-25 07:14 39.08258 -107.67503 24077 ft 400 kts 68°
2026-03-25 07:14 39.09216 -107.64144 24078 ft 400 kts 68°
2026-03-25 07:15 39.10175 -107.60785 24081 ft 400 kts 68°
2026-03-25 07:15 39.11139 -107.57429 24079 ft 400 kts 67°
2026-03-25 07:15 39.12123 -107.54080 23884 ft 400 kts 67°
2026-03-25 07:15 39.13099 -107.50764 23405 ft 394 kts 67°
2026-03-25 07:16 39.14063 -107.47474 22862 ft 390 kts 67°
2026-03-25 07:16 39.15014 -107.44210 22314 ft 386 kts 67°
2026-03-25 07:16 39.15933 -107.40982 21765 ft 383 kts 72°
2026-03-25 07:16 39.16343 -107.37643 21657 ft 370 kts 87°
2026-03-25 07:17 39.16276 -107.34396 21464 ft 359 kts 93°
2026-03-25 07:17 39.16107 -107.31197 21051 ft 356 kts 93°
2026-03-25 07:17 39.15981 -107.28017 20641 ft 353 kts 91°
2026-03-25 07:17 39.15906 -107.24874 20231 ft 350 kts 90°
2026-03-25 07:18 39.15860 -107.21746 19808 ft 349 kts 89°
2026-03-25 07:18 39.15821 -107.18671 19460 ft 346 kts 89°
2026-03-25 07:18 39.15785 -107.15579 19089 ft 344 kts 89°
2026-03-25 07:18 39.15743 -107.12518 18710 ft 341 kts 89°
2026-03-25 07:19 39.15699 -107.09462 18334 ft 339 kts 89°
2026-03-25 07:19 39.15658 -107.06433 17967 ft 336 kts 89°
2026-03-25 07:19 39.15615 -107.03436 17512 ft 335 kts 89°
2026-03-25 07:19 39.15569 -107.00432 17094 ft 333 kts 89°
2026-03-25 07:20 39.15522 -106.97464 16689 ft 333 kts 89°
2026-03-25 07:20 39.15476 -106.94507 16360 ft 329 kts 89°
2026-03-25 07:20 39.15427 -106.91581 16034 ft 324 kts 89°
2026-03-25 07:20 39.15472 -106.88697 15606 ft 320 kts 77°
2026-03-25 07:21 39.16288 -106.86158 15832 ft 298 kts 53°
2026-03-25 07:21 39.17564 -106.84107 15527 ft 290 kts 42°
2026-03-25 07:21 39.18974 -106.82236 15162 ft 289 kts 41°
2026-03-25 07:21 39.20358 -106.80354 14821 ft 289 kts 43°
2026-03-25 07:22 39.21696 -106.78429 14484 ft 288 kts 45°
2026-03-25 07:22 39.22995 -106.76480 14158 ft 286 kts 46°
2026-03-25 07:22 39.24268 -106.74532 13971 ft 279 kts 46°
2026-03-25 07:22 39.25493 -106.72643 13956 ft 273 kts 46°
2026-03-25 07:23 39.26731 -106.70725 13944 ft 285 kts 47°
2026-03-25 07:23 39.28023 -106.68745 13915 ft 291 kts 45°
2026-03-25 07:23 39.29385 -106.66828 13841 ft 286 kts 33°
2026-03-25 07:23 39.31088 -106.65792 13666 ft 263 kts
2026-03-25 07:24 39.32844 -106.66024 13354 ft 249 kts 336°
2026-03-25 07:24 39.34387 -106.66945 13166 ft 243 kts 327°
2026-03-25 07:24 39.35890 -106.67968 12915 ft 245 kts 329°
2026-03-25 07:24 39.37444 -106.68893 12621 ft 245 kts 333°
2026-03-25 07:25 39.39020 -106.69675 12310 ft 238 kts 338°
2026-03-25 07:25 39.40569 -106.70281 12249 ft 227 kts 340°
2026-03-25 07:25 39.42060 -106.70816 12224 ft 217 kts 340°
2026-03-25 07:25 39.43473 -106.71374 12163 ft 207 kts 338°
2026-03-25 07:26 39.44858 -106.71915 12193 ft 218 kts 339°
2026-03-25 07:26 39.46380 -106.72486 12488 ft 228 kts 339°
2026-03-25 07:26 39.47731 -106.73428 12428 ft 218 kts 315°
2026-03-25 07:26 39.48642 -106.74924 12367 ft 205 kts 298°
2026-03-25 07:27 39.49332 -106.76512 12371 ft 201 kts 298°
2026-03-25 07:27 39.50051 -106.78076 12357 ft 202 kts 301°
2026-03-25 07:27 39.50828 -106.79598 12333 ft 203 kts 303°
2026-03-25 07:27 39.51521 -106.81175 12280 ft 202 kts 287°
2026-03-25 07:28 39.51799 -106.82955 12318 ft 203 kts 276°
2026-03-25 07:28 39.51871 -106.84759 12392 ft 204 kts 272°
2026-03-25 07:28 39.51913 -106.86627 12370 ft 204 kts 272°
2026-03-25 07:28 39.51990 -106.88431 12547 ft 203 kts 274°
2026-03-25 07:29 39.51998 -106.90256 12551 ft 203 kts 265°
2026-03-25 07:29 39.51732 -106.92051 12534 ft 203 kts 255°
2026-03-25 07:29 39.51205 -106.93749 12476 ft 204 kts 245°
2026-03-25 07:29 39.50420 -106.95298 12426 ft 209 kts 233°
2026-03-25 07:30 39.49371 -106.96608 12426 ft 211 kts 221°
2026-03-25 07:30 39.48112 -106.97616 12444 ft 215 kts 210°
2026-03-25 07:30 39.46705 -106.98277 12539 ft 214 kts 198°
2026-03-25 07:30 39.45277 -106.98520 12551 ft 201 kts 186°
2026-03-25 07:31 39.43910 -106.98377 12471 ft 194 kts 175°
2026-03-25 07:31 39.42609 -106.98031 12407 ft 188 kts 173°
2026-03-25 07:31 39.41338 -106.97652 12343 ft 188 kts 172°
2026-03-25 07:31 39.40055 -106.97274 12197 ft 195 kts 172°
2026-03-25 07:32 39.38674 -106.96877 11653 ft 201 kts 171°
2026-03-25 07:32 39.37381 -106.96480 11493 ft 184 kts 171°
2026-03-25 07:32 39.36152 -106.96112 11490 ft 181 kts 172°
2026-03-25 07:32 39.34907 -106.95770 11494 ft 185 kts 171°
2026-03-25 07:33 39.33661 -106.95195 11151 ft 194 kts 158°
2026-03-25 07:33 39.32435 -106.94365 10509 ft 203 kts 152°
2026-03-25 07:33 39.31325 -106.93309 10044 ft 197 kts 137°
2026-03-25 07:33 39.30406 -106.92001 9559 ft 193 kts 137°
2026-03-25 07:34 39.29432 -106.90931 9335 ft 178 kts 146°
2026-03-25 07:34 39.28422 -106.90116 9102 ft 161 kts 152°
2026-03-25 07:34 39.27471 -106.89453 8702 ft 154 kts 154°
2026-03-25 07:34 39.26551 -106.88851 8262 ft 142 kts 159°
2026-03-25 07:35 39.25636 -106.88406 7941 ft 139 kts 162°
2026-03-25 07:35 39.24702 -106.87999 7765 ft 144 kts 165°
2026-03-25 07:35 39.23742 -106.87578 7620 ft 149 kts 162°
2026-03-25 07:35 39.22816 -106.87116 7717 ft 130 kts 161°
2026-03-25 07:36 39.22115 -106.86793 7764 ft 81 kts 160°
2026-03-25 07:36 39.21793 -106.86638 7798 ft 36 kts 160°
2026-03-25 07:36 39.21690 -106.86527 7805 ft 11 kts 78°
2026-03-25 07:36 39.21731 -106.86491 7802 ft 9 kts 357°
2026-03-25 07:37 39.21795 -106.86514 7797 ft 3 kts 339°
2026-03-25 07:37 39.21806 -106.86520 7797 ft 2 kts 339°
2026-03-25 07:37 39.21835 -106.86535 7789 ft 7 kts 339°
2026-03-25 07:37 39.21900 -106.86555 7784 ft 12 kts 18°
2026-03-25 07:38 39.21924 -106.86489 7780 ft 6 kts 75°
2026-03-25 07:38 39.21927 -106.86477 7777 ft 0 kts 74°
2026-03-25 07:38 39.21927 -106.86474 7778 ft 0 kts 74°